Location: Newark
(44.3867°N, 6.6531°E)
Time: 05:49:14
(UTC+00:00)

Envisat - Pass Details

Date: 01 February 2020
Orbit: 764 x 766 km, 98.1° (Epoch: 27 February)

Event Time Altitude Azimuth Distance (km) Brightness Sun altitude
Rises 05:12:03 0° 26° (NNE) 3,241 6.5 -18.1°
Reaches altitude 10° 05:14:53 10° 42° (NE) 2,309 5.9 -17.6°
Maximum altitude 05:18:47 22° 92° (E) 1,636 5.7 -16.9°
Drops below altitude 10° 05:22:38 10° 142° (SE) 2,296 6.1 -16.2°
Sets 05:25:26 0° 158° (SSE) 3,216 6.7 -15.7°
